[[{"header":{"parameterUnit":"m.s-1","parameterCategory":1,"la1":30.2992,"la2":30.254,"lo1":-89.0895,"lo2":-89.0443,"dy":0.0025,"dx":0.0025,"nx":19,"ny":19,"refTime":"2026-05-02T21:00:00:Z","depth":0,"parameterNumber":2,"parameterNumberName":"U-component_of_WINDS"},"data":[0,0,0,1.6064,1.6067,1.6187,1.6187,1.6348,1.6349,0,0,0,0,0,0,0,0,0,0,0,1.6032,1.6033,1.6064,1.6067,1.6187,1.6187,1.6348,1.6349,0,0,0,0,0,0,0,0,0,0,0,1.6031,1.6033,1.6034,1.6068,1.6186,1.6187,1.6347,1.6255,0,0,0,0,0,0,0,0,0,0,1.6137,1.611,1.6032,1.6034,1.6068,1.6186,1.6187,1.625,1.626,1.6296,0,1.6328,0,1.6341,1.6361,1.6361,0,0,0,1.6065,1.6101,1.613,1.6034,1.6069,1.6186,1.6132,1.6256,1.6268,1.631,1.633,1.6336,1.6344,1.6362,1.6362,1.6572,1.6573,0,0,1.6059,1.6055,1.6122,1.6138,1.6118,1.6128,1.6136,1.6263,1.6285,1.6331,1.6339,1.6346,1.6363,1.6364,1.6571,1.6572,0,0,0,1.6041,1.6051,1.6077,1.6132,1.6153,1.6132,1.6141,1.6279,1.6288,1.6341,1.6348,1.6364,1.6366,1.657,1.6571,1.6619,0,0,0,1.6037,1.604,1.6074,1.6073,1.615,1.6217,1.6154,1.6279,1.6293,1.6347,1.6364,1.6367,1.6568,1.657,1.6615,1.6643,0,0,0,1.6023,1.6039,1.6057,1.6073,1.6124,1.6215,1.6231,1.6282,1.6298,1.6361,1.6368,1.6568,1.657,1.6612,1.6637,1.6696,0,0,0,1.6008,1.6099,1.6058,1.6162,1.6123,1.6243,1.623,1.6321,1.6381,1.6365,1.6569,1.6571,1.6611,1.6634,1.6692,1.6745,1.6766,0,0,1.6121,1.6112,1.6174,1.6141,1.6267,1.6225,1.636,1.6419,1.6429,1.6524,1.6529,1.6617,1.6637,1.6695,1.6889,1.6906,0,0,0,1.6209,1.6254,1.6288,1.6344,1.639,1.6432,1.6471,1.6493,1.6573,1.6477,1.6654,1.6666,1.6701,1.6726,1.6741,1.677,1.6583,1.6582,1.6582,1.6365,1.6371,1.6474,1.6496,1.6551,1.6589,1.6634,1.6671,1.6663,1.6705,1.6733,1.6849,1.6879,1.6889,1.692,1.6761,1.6762,1.6762,1.6762,1.6531,1.6595,1.6581,1.6676,1.6683,1.6763,1.6805,1.6796,1.6873,1.6829,1.686,1.681,1.6908,1.6935,1.6766,1.6765,1.6765,1.6764,1.6764,1.6633,1.6665,1.6689,1.677,1.6833,1.6852,1.6926,1.6931,1.6936,1.6966,1.6996,1.6995,1.6995,1.698,1.6981,1.6981,1.6981,1.6982,1.6982,1.6729,1.6755,1.6815,1.6872,1.6908,1.6957,1.6997,1.7034,1.7076,1.7074,1.7074,1.7062,1.6916,1.6879,1.6988,1.6987,1.6986,1.6986,1.6985,1.6894,1.6857,1.6951,1.6987,1.7054,1.7116,1.7121,1.7195,1.7226,1.7263,1.7244,1.7136,1.7128,1.7117,1.7086,1.7242,1.7242,1.7242,1.7242,1.6979,1.6975,1.7072,1.713,1.7188,1.7201,1.7308,1.7341,1.7369,1.7389,1.7367,1.7327,1.7315,1.7315,1.7299,1.727,1.747,1.747,1.747,1.7081,1.7083,1.7172,1.7197,1.725,1.7296,1.7397,1.7465,1.749,1.748,1.7405,1.7395,1.733,1.7309,1.7297,1.7272,1.722,0,0]},{"header":{"parameterUnit":"m.s-1","parameterCategory":1,"la1":30.2992,"la2":30.254,"lo1":-89.0895,"lo2":-89.0443,"dy":0.0025,"dx":0.0025,"nx":19,"ny":19,"refTime":"2026-05-02T21:00:00:Z","depth":0,"parameterNumber":3,"parameterNumberName":"V-component_of_WINDS"},"data":[0,0,0,0.6674,0.6674,0.6629,0.6629,0.6605,0.6605,0,0,0,0,0,0,0,0,0,0,0,0.6708,0.6708,0.6674,0.6673,0.6629,0.6629,0.6605,0.6605,0,0,0,0,0,0,0,0,0,0,0,0.6707,0.6708,0.6709,0.6673,0.6629,0.6629,0.6605,0.6626,0,0,0,0,0,0,0,0,0,0,0.6664,0.6715,0.6708,0.6709,0.6673,0.6629,0.6629,0.6627,0.6625,0.6639,0,0.6657,0,0.6631,0.6605,0.6605,0,0,0,0.6658,0.6717,0.6686,0.6709,0.6673,0.663,0.6645,0.6625,0.6623,0.6637,0.6657,0.6655,0.6631,0.6605,0.6605,0.6738,0.6739,0,0,0.666,0.6711,0.6688,0.6686,0.6696,0.6646,0.6644,0.6624,0.6649,0.6657,0.6654,0.663,0.6605,0.6605,0.6737,0.6738,0,0,0,0.6678,0.6713,0.6682,0.6688,0.6678,0.6646,0.6642,0.6649,0.6635,0.6653,0.663,0.6605,0.6606,0.6735,0.6737,0.6853,0,0,0,0.6679,0.6723,0.6684,0.6715,0.6679,0.6663,0.667,0.6637,0.6633,0.663,0.6605,0.6606,0.6734,0.6736,0.6846,0.6899,0,0,0,0.6703,0.6726,0.6726,0.6717,0.67,0.6662,0.6646,0.6635,0.6619,0.6605,0.6606,0.6733,0.6736,0.6841,0.689,0.6948,0,0,0,0.6744,0.683,0.6729,0.6815,0.6701,0.6734,0.6646,0.6668,0.667,0.6605,0.6734,0.6737,0.6839,0.6884,0.6943,0.7007,0.7039,0,0,0.6881,0.6848,0.6895,0.6803,0.6868,0.6737,0.6818,0.6771,0.6724,0.6736,0.6738,0.6848,0.6889,0.6947,0.7199,0.7225,0,0,0,0.6955,0.6989,0.6995,0.7,0.6966,0.6942,0.6878,0.686,0.6868,0.6741,0.6884,0.6906,0.6939,0.6967,0.6989,0.7013,0.6752,0.6752,0.6752,0.7221,0.7155,0.7227,0.7156,0.7161,0.7094,0.7091,0.7056,0.6988,0.7023,0.7027,0.7187,0.7223,0.7239,0.7265,0.7055,0.7056,0.7056,0.7056,0.7414,0.7452,0.7359,0.7396,0.7326,0.7356,0.7294,0.7245,0.7262,0.718,0.7205,0.7121,0.7269,0.7288,0.7064,0.7063,0.7062,0.7061,0.706,0.758,0.7587,0.7564,0.7562,0.7568,0.7492,0.7513,0.7448,0.7386,0.7411,0.7407,0.7405,0.7394,0.7414,0.7414,0.7415,0.7415,0.7416,0.7416,0.7763,0.7733,0.7759,0.773,0.7723,0.7706,0.7638,0.7629,0.7603,0.7553,0.7553,0.7482,0.7296,0.725,0.7424,0.7423,0.7422,0.7421,0.742,0.7984,0.7923,0.7963,0.7957,0.7916,0.7926,0.7842,0.7829,0.7812,0.7824,0.7747,0.762,0.7582,0.7564,0.7526,0.7761,0.7761,0.7761,0.7761,0.8125,0.8099,0.8124,0.8118,0.8104,0.8032,0.8078,0.8025,0.7961,0.7946,0.7902,0.7846,0.783,0.7801,0.7779,0.7742,0.8026,0.8027,0.8027,0.8256,0.8226,0.8279,0.8216,0.8179,0.8149,0.819,0.8185,0.8098,0.8036,0.7932,0.7921,0.7829,0.7803,0.774,0.7706,0.7638,0,0]}]]